Weather History for Port Angeles, WA

Change the Weather History Date:

Saturday, January 11, 2014

  Actual Average Record
Temperature  
Mean Temperature 46 °F -  
Max Temperature 48 °F 44 °F 61 °F (1983)
Min Temperature 44 °F 34 °F 15 °F (1963)
Degree Days  
Heating Degree Days 19    
Moisture  
Dew Point 41 °F    
Average Humidity 86    
Maximum Humidity 97    
Minimum Humidity 56    
Precipitation  
Precipitation 1.13 in - - ()
Sea Level Pressure  
Sea Level Pressure 29.38 in    
Wind  
Wind Speed 6 mph (West)    
Max Wind Speed 28 mph    
Max Gust Speed 40 mph    
Visibility 7 miles    
Events Rain    
Averages and records for this station are not official NWS values.
T = Trace of Precipitation, MM = Missing Value Source: NWS Daily Summary

Daily Weather History Graph

Daily Weather History Graph

Search for Another Location

Airport:

Trip Planner

Search our weather history database for the weather conditions in past years. The results will help you decide how hot, cold, wet, or windy it might be!

Date:

Astronomy

Jan. 11, 2014 Rise Set
Actual Time 8:01 AM PST 4:42 PM PST
Civil Twilight 7:26 AM PST 5:18 PM PST
Nautical Twilight 6:47 AM PST 5:57 PM PST
Astronomical Twilight 6:09 AM PST 6:34 PM PST
Moon 1:34 PM PST (1/11) 4:07 AM PST (1/11)
Length of Visible Light 9h 52m
Length of Day
8h 41m
Waxing Gibbous, 84% of the Moon is Illuminated
Jan 11
Waxing Gibbous
Jan 15
Full
Jan 23
Last Quarter
Jan 30
New
Feb 6
First Quarter

Hourly Weather History & Observations

Time (PST) Temp. Windchill Dew Point Humidity Pressure Visibility Wind Dir Wind Speed Gust Speed Precip Events Conditions
12:53 AM 46.0 °F 43.9 °F 44.1 °F 93% 29.34 in 10.0 mi Variable 4.6 mph - 0.05 in Rain Light Rain
1:02 AM 46.0 °F 43.9 °F 44.1 °F 93% 29.33 in 7.0 mi Variable 4.6 mph - 0.01 in Rain Light Rain
1:20 AM 45.0 °F 42.6 °F 43.0 °F 93% 29.31 in 2.5 mi East 4.6 mph - 0.10 in Rain Rain
1:41 AM 46.0 °F 44.8 °F 44.1 °F 93% 29.31 in 4.0 mi ESE 3.5 mph - 0.21 in Rain Rain
1:53 AM 46.0 °F - 44.1 °F 93% 29.32 in 4.0 mi Calm Calm - 0.24 in Rain Rain
2:28 AM 46.9 °F - 45.0 °F 93% 29.32 in 2.5 mi Calm Calm - 0.12 in Rain Rain
2:44 AM 46.0 °F - 45.0 °F 96% 29.32 in 3.0 mi Calm Calm - 0.18 in Rain Rain
2:51 AM 46.4 °F 45.2 °F 44.6 °F 93% 29.33 in 2.5 mi SW 3.5 mph - 0.20 in Rain Rain
2:53 AM 46.0 °F 44.8 °F 45.0 °F 96% 29.33 in 2.5 mi West 3.5 mph - 0.21 in Rain Light Rain
3:08 AM 46.9 °F - 45.0 °F 93% 29.33 in 2.5 mi NNW 5.8 mph - 0.06 in Rain Rain
3:11 AM 46.9 °F - 46.0 °F 97% 29.34 in 2.5 mi NW 5.8 mph - 0.08 in Rain Heavy Rain
3:20 AM 46.9 °F - 45.0 °F 93% 29.36 in 3.0 mi WSW 9.2 mph - 0.12 in Rain Rain
3:29 AM 46.9 °F - 46.0 °F 97% 29.36 in 3.0 mi WSW 8.1 mph - 0.15 in Rain Rain
3:34 AM 48.0 °F - 46.0 °F 93% 29.35 in 3.0 mi West 9.2 mph - 0.17 in Rain Rain
3:43 AM 48.0 °F - 45.0 °F 89% 29.35 in 5.0 mi WNW 6.9 mph - 0.20 in Rain Light Rain
3:53 AM 46.9 °F - 45.0 °F 93% 29.37 in 8.0 mi NW 10.4 mph - 0.21 in Rain Light Rain
4:53 AM 46.0 °F 41.4 °F 42.1 °F 86% 29.37 in 10.0 mi SSW 9.2 mph - 0.08 in Rain Light Rain
5:53 AM 44.1 °F 40.1 °F 41.0 °F 89% 29.36 in 10.0 mi SW 6.9 mph - 0.02 in Rain Light Rain
6:53 AM 44.1 °F 41.5 °F 39.0 °F 82% 29.37 in 10.0 mi WNW 4.6 mph - 0.00 in   Overcast
7:53 AM 45.0 °F - 39.0 °F 80% 29.37 in 9.0 mi Calm Calm - 0.01 in Rain Light Rain
8:53 AM 45.0 °F 41.2 °F 39.0 °F 80% 29.35 in 10.0 mi SSE 6.9 mph - 0.00 in Rain Light Rain
9:53 AM 44.1 °F 42.5 °F 39.9 °F 85% 29.29 in 10.0 mi SSE 3.5 mph - 0.04 in Rain Light Rain
10:53 AM 44.1 °F - 41.0 °F 89% 29.30 in 1.8 mi Calm Calm - 0.12 in Rain Rain
10:58 AM 44.1 °F - 41.0 °F 89% 29.28 in 3.0 mi Calm Calm - 0.00 in Rain Light Rain
11:53 AM 45.0 °F 39.7 °F 42.1 °F 90% 29.27 in 10.0 mi SE 10.4 mph - 0.00 in   Overcast
12:53 PM 45.0 °F 41.8 °F 41.0 °F 86% 29.21 in 3.0 mi Variable 5.8 mph - 0.06 in Rain Rain
1:53 PM 46.0 °F 41.9 °F 41.0 °F 83% 29.23 in 10.0 mi WNW 8.1 mph - 0.02 in   Overcast
2:53 PM 44.1 °F - 42.1 °F 93% 29.26 in 10.0 mi Calm Calm - 0.04 in Rain Light Rain
3:53 PM 44.1 °F - 41.0 °F 89% 29.31 in 10.0 mi Calm Calm - 0.01 in Rain Light Rain
4:53 PM 44.1 °F - 39.9 °F 85% 29.33 in 10.0 mi North - - 0.01 in Rain Light Rain
5:53 PM 45.0 °F 37.4 °F 37.9 °F 76% 29.39 in 10.0 mi WNW 18.4 mph - 0.01 in   Mostly Cloudy
6:53 PM 46.0 °F 39.9 °F 37.9 °F 73% 29.45 in 10.0 mi West 13.8 mph 25.3 mph N/A   Partly Cloudy
7:53 PM 46.0 °F 39.0 °F 37.0 °F 71% 29.54 in 10.0 mi West 17.3 mph 40.3 mph 0.00 in   Overcast
8:53 PM 46.9 °F - 36.0 °F 66% 29.61 in 10.0 mi West 27.6 mph 36.8 mph N/A   Overcast
9:53 PM 46.0 °F 38.5 °F 35.1 °F 66% 29.68 in 10.0 mi West 19.6 mph 31.1 mph N/A   Mostly Cloudy
10:53 PM 46.0 °F 38.3 °F 34.0 °F 63% 29.75 in 10.0 mi West 20.7 mph 32.2 mph N/A   Overcast
11:53 PM 46.0 °F 39.0 °F 30.9 °F 56% 29.81 in 10.0 mi West 17.3 mph 34.5 mph N/A   Partly Cloudy